McConnell AFB, KS

6:03 PM CDT on July 15, 2019 (GMT -0500)
McConnell Air Force Base

Weather History for KIAB - May, 2019

Change the Weather History Date:

Sunday, May 12, 2019

  Actual Average Record
Temperature  
Mean Temperature 60 °F -  
Max Temperature 70 °F 73 °F 91 °F (2018)
Min Temperature 49 °F 54 °F 44 °F (2003)
Degree Days  
Heating Degree Days 6    
Growing Degree Days 10 (Base 50)    
Moisture  
Dew Point 44 °F    
Average Humidity 56    
Maximum Humidity 94    
Minimum Humidity 33    
Precipitation  
Precipitation 0.00 in - - ()
Sea Level Pressure  
Sea Level Pressure 29.85 in    
Wind  
Wind Speed 10 mph (WNW)    
Max Wind Speed 20 mph    
Max Gust Speed 29 mph    
Visibility 10 miles    
Events      
Averages and records for this station are not official NWS values.
T = Trace of Precipitation, MM = Missing Value Source: NWS Daily Summary

Daily Weather History Graph

Daily Weather History Graph

Search for Another Location

Airport or City:

Astronomy

May. 12, 2019 Rise Set
Actual Time 6:22 AM CDT 8:28 PM CDT
Civil Twilight 5:53 AM CDT 8:58 PM CDT
Nautical Twilight 5:17 AM CDT 9:33 PM CDT
Astronomical Twilight 4:39 AM CDT 10:12 PM CDT
Moon 1:42 PM CDT (5/12) 2:52 AM CDT (5/12)
Length of Visible Light 15h 04m
Length of Day
14h 06m
First Quarter, 58% of the Moon is Illuminated
May 12
First Quarter
May 18
Full
May 26
Last Quarter
Jun 3
New
Jun 10
First Quarter

Hourly Weather History & Observations

Time (CDT) Temp. Dew Point Humidity Pressure Visibility Wind Dir Wind Speed Gust Speed Precip Events Conditions
12:56 AM 49.6 °F 47.7 °F 93% 29.87 in 10.0 mi SE 5.8 mph - N/A   Scattered Clouds
2:56 AM 51.8 °F 48.4 °F 88% 29.83 in 10.0 mi South 13.8 mph - N/A   Mostly Cloudy
3:56 AM 51.4 °F 48.6 °F 90% 29.81 in 10.0 mi South 10.4 mph - N/A   Overcast
4:31 AM 51.8 °F 50.0 °F 94% 29.82 in 10.0 mi South 9.2 mph - N/A   Mostly Cloudy
4:56 AM 52.2 °F 49.1 °F 89% 29.81 in 10.0 mi SSW 9.2 mph - N/A   Mostly Cloudy
5:56 AM 51.3 °F 48.4 °F 90% 29.82 in 10.0 mi West 6.9 mph - N/A   Partly Cloudy
6:56 AM 52.2 °F 49.1 °F 89% 29.83 in 10.0 mi West 6.9 mph - N/A   Clear
7:56 AM 54.1 °F 49.6 °F 85% 29.86 in 10.0 mi WNW 12.7 mph - N/A   Clear
8:56 AM 57.2 °F 49.3 °F 75% 29.86 in 10.0 mi West 12.7 mph - N/A   Clear
9:56 AM 61.2 °F 47.1 °F 60% 29.87 in 10.0 mi West 10.4 mph - N/A   Clear
10:56 AM 63.7 °F 44.2 °F 49% 29.88 in 10.0 mi WNW 11.5 mph - N/A   Clear
11:56 AM 66.2 °F 43.0 °F 43% 29.87 in 10.0 mi NW 9.2 mph 17.3 mph N/A   Clear
12:26 PM 66.2 °F 42.8 °F 43% 29.87 in 10.0 mi West 13.8 mph - N/A   Clear
12:41 PM 68.0 °F 42.8 °F 40% 29.87 in 10.0 mi WNW 12.7 mph 18.4 mph N/A   Clear
12:56 PM 67.3 °F 42.1 °F 40% 29.87 in 10.0 mi WNW 12.7 mph - N/A   Partly Cloudy
1:56 PM 68.4 °F 41.7 °F 38% 29.85 in 10.0 mi West 13.8 mph 20.7 mph N/A   Partly Cloudy
2:49 PM 69.8 °F 39.2 °F 33% 29.85 in 10.0 mi WSW 13.8 mph 26.5 mph N/A   Partly Cloudy
2:56 PM 69.8 °F 41.5 °F 36% 29.85 in 10.0 mi West 11.5 mph 26.5 mph N/A   Scattered Clouds
3:51 PM 69.8 °F 41.0 °F 35% 29.83 in 10.0 mi West 19.6 mph 28.8 mph N/A   Partly Cloudy
3:56 PM 70.0 °F 40.3 °F 34% 29.83 in 10.0 mi West 17.3 mph 28.8 mph N/A   Partly Cloudy
3:57 PM 69.8 °F 41.0 °F 35% 29.83 in 10.0 mi WNW 15.0 mph 28.8 mph N/A   Partly Cloudy
4:15 PM 69.8 °F 41.0 °F 35% 29.83 in 10.0 mi WNW 18.4 mph 24.2 mph N/A   Partly Cloudy
4:38 PM 69.8 °F 41.0 °F 35% 29.83 in 10.0 mi West 11.5 mph 21.9 mph N/A   Clear
4:56 PM 70.5 °F 41.5 °F 35% 29.83 in 10.0 mi WNW 12.7 mph 20.7 mph N/A   Clear
5:56 PM 70.5 °F 41.5 °F 35% 29.83 in 10.0 mi WNW 12.7 mph 20.7 mph N/A   Clear
6:56 PM 69.3 °F 41.9 °F 37% 29.83 in 10.0 mi NW 8.1 mph 17.3 mph N/A   Clear
7:56 PM 65.5 °F 42.4 °F 43% 29.83 in 10.0 mi NW 9.2 mph - N/A   Clear
8:56 PM 59.9 °F 42.8 °F 53% 29.86 in 10.0 mi North 5.8 mph - N/A   Clear
9:56 PM 59.5 °F 43.3 °F 55% 29.88 in 10.0 mi North 4.6 mph - N/A   Clear
10:56 PM 58.3 °F 44.1 °F 59% 29.91 in 10.0 mi NNE 6.9 mph - N/A   Clear
11:56 PM 57.6 °F 44.6 °F 62% 29.91 in 10.0 mi NE 6.9 mph - N/A   Clear